Bozeman, MT

1:12 AM MDT on April 30, 2017 (GMT -0600)
Gallatin

Weather History for KBZN - May, 2014

Change the Weather History Date:

Monday, May 12, 2014

  Actual Average Record
Temperature  
Mean Temperature 41 °F 53 °F  
Max Temperature 50 °F 67 °F 90 °F (2007)
Min Temperature 32 °F 38 °F 21 °F (1943)
Degree Days  
Heating Degree Days 24 12  
Month to date heating degree days 236 168  
Since 1 July heating degree days 7894 7229  
Cooling Degree Days 0 0  
Month to date cooling degree days 0 0  
Year to date cooling degree days 0 0  
Moisture  
Dew Point 30 °F    
Average Humidity 63    
Maximum Humidity 89    
Minimum Humidity 36    
Precipitation  
Precipitation T in 0.07 in 0.55 in (1995)
Month to date precipitation 1.01 0.79  
Year to date precipitation 4.39 4.24  
Snow  
Snow 0.00 in 0.00 in 4.20 in (1989)
Month to date snowfall T 1.3  
Since 1 July snowfall 32.3 38.8  
Snow Depth 0.00 in    
Sea Level Pressure  
Sea Level Pressure 30.43 in    
Wind  
Wind Speed 6 mph (West)    
Max Wind Speed 12 mph    
Max Gust Speed 12 mph    
Visibility 8 miles    
Events Snow    
T = Trace of Precipitation, MM = Missing Value Source: NWS Daily Summary

Daily Weather History Graph

Daily Weather History Graph

Search for Another Location

Airport or City:

Trip Planner

Search our weather history database for the weather conditions in past years. The results will help you decide how hot, cold, wet, or windy it might be!

Date:

Astronomy

May. 12, 2014 Rise Set
Actual Time 5:56 AM MDT 8:45 PM MDT
Civil Twilight 5:22 AM MDT 9:20 PM MDT
Nautical Twilight 4:38 AM MDT 10:04 PM MDT
Astronomical Twilight 3:47 AM MDT 10:56 PM MDT
Moon 6:41 PM MDT (5/12) 4:46 AM MDT (5/12)
Length of Visible Light 15h 58m
Length of Day
14h 49m
Waxing Gibbous, 95% of the Moon is Illuminated
May 12
Waxing Gibbous
May 14
Full
May 21
Last Quarter
May 28
New
Jun 5
First Quarter

Hourly Weather History & Observations

Time (MDT) Temp. Windchill Dew Point Humidity Pressure Visibility Wind Dir Wind Speed Gust Speed Precip Events Conditions
12:32 AM 35.1 °F 31.0 °F 30.0 °F 82% 30.32 in 10.0 mi NW 4.6 mph - 0.00 in   Overcast
12:56 AM 36.0 °F - 30.0 °F 79% 30.37 in 10.0 mi Calm Calm - 0.00 in   Overcast
1:36 AM 35.1 °F 27.4 °F 30.0 °F 82% 30.33 in 10.0 mi North 10.4 mph - N/A   Overcast
1:56 AM 35.1 °F 28.6 °F 28.9 °F 78% 30.38 in 10.0 mi North 8.1 mph - N/A   Overcast
2:56 AM 35.1 °F 29.3 °F 30.0 °F 82% 30.39 in 10.0 mi WSW 6.9 mph - N/A   Overcast
3:16 AM 34.0 °F 28.8 °F 30.0 °F 85% 30.34 in 7.0 mi WSW 5.8 mph - 0.00 in Snow Light Snow
3:56 AM 33.1 °F 28.7 °F 30.0 °F 89% 30.41 in 9.0 mi NW 4.6 mph - 0.00 in   Overcast
4:37 AM 34.0 °F 31.0 °F 30.9 °F 89% 30.36 in 7.0 mi West 3.5 mph - 0.00 in Snow Light Snow
4:56 AM 33.1 °F 27.7 °F 30.9 °F 92% 30.43 in 3.0 mi West 5.8 mph - 0.00 in Snow Light Snow
5:02 AM 33.1 °F 26.9 °F 30.0 °F 89% 30.37 in 1.8 mi West 6.9 mph - 0.00 in Snow Light Snow
5:08 AM 33.1 °F 26.9 °F 30.0 °F 89% 30.37 in 2.0 mi West 6.9 mph - 0.00 in Snow Light Snow
5:17 AM 32.0 °F 25.6 °F 30.9 °F 96% 30.37 in 2.5 mi West 6.9 mph - 0.00 in Snow Light Snow
5:30 AM 32.0 °F 26.4 °F 30.9 °F 96% 30.38 in 3.0 mi WNW 5.8 mph - 0.00 in Snow Light Snow
5:43 AM 32.0 °F 28.7 °F 30.9 °F 96% 30.38 in 6.0 mi WNW 3.5 mph - 0.00 in Snow Light Snow
5:56 AM 32.0 °F 27.5 °F 30.9 °F 96% 30.45 in 8.0 mi West 4.6 mph - 0.00 in   Overcast
6:29 AM 33.1 °F 28.7 °F 30.9 °F 92% 30.39 in 10.0 mi West 4.6 mph - N/A   Overcast
6:56 AM 33.1 °F 28.7 °F 30.0 °F 89% 30.46 in 10.0 mi West 4.6 mph - N/A   Overcast
7:11 AM 33.1 °F 27.7 °F 30.9 °F 92% 30.41 in 5.0 mi West 5.8 mph - 0.00 in Snow Light Snow
7:37 AM 33.1 °F 28.7 °F 30.9 °F 92% 30.42 in 2.5 mi West 4.6 mph - 0.00 in Snow Light Snow
7:56 AM 33.8 °F 28.6 °F 30.2 °F 87% 30.42 in 4.0 mi WNW 5.8 mph - N/A Snow Light Snow
8:22 AM 34.0 °F 31.0 °F 30.9 °F 89% 30.43 in 10.0 mi West 3.5 mph - 0.00 in   Overcast
8:56 AM 35.1 °F 31.0 °F 30.9 °F 85% 30.51 in 10.0 mi NW 4.6 mph - 0.00 in   Overcast
9:06 AM 35.6 °F 30.7 °F 30.2 °F 81% 30.44 in 10.0 mi NW 5.8 mph - N/A   Overcast
9:39 AM 37.0 °F - 30.9 °F 79% 30.44 in 10.0 mi Calm Calm - N/A   Overcast
9:56 AM 37.9 °F - 32.0 °F 79% 30.51 in 10.0 mi Calm Calm - N/A   Overcast
10:56 AM 37.9 °F 32.1 °F 30.9 °F 76% 30.51 in 10.0 mi WSW 8.1 mph - 0.00 in   Overcast
11:35 AM 39.0 °F 34.8 °F 30.9 °F 73% 30.44 in 10.0 mi SW 5.8 mph - N/A   Overcast
11:42 AM 39.9 °F 35.1 °F 30.9 °F 70% 30.44 in 10.0 mi WSW 6.9 mph - N/A   Overcast
11:56 AM 39.9 °F 35.1 °F 32.0 °F 73% 30.50 in 10.0 mi WSW 6.9 mph - N/A   Overcast
12:04 PM 39.0 °F 36.8 °F 28.9 °F 67% 30.44 in 10.0 mi Variable 3.5 mph - N/A   Overcast
12:56 PM 43.0 °F 40.3 °F 30.0 °F 60% 30.48 in 10.0 mi SSW 4.6 mph - N/A   Overcast
1:56 PM 43.0 °F 38.2 °F 30.0 °F 60% 30.48 in 10.0 mi WNW 8.1 mph - N/A   Overcast
2:56 PM 46.0 °F - 26.1 °F 46% 30.48 in 10.0 mi Calm Calm - N/A   Partly Cloudy
3:56 PM 48.0 °F - 28.9 °F 48% 30.47 in 10.0 mi NNE 5.8 mph - N/A   Mostly Cloudy
4:56 PM 46.9 °F - 26.1 °F 44% 30.47 in 10.0 mi North 4.6 mph - N/A   Clear
5:56 PM 48.9 °F - 25.0 °F 39% 30.45 in 10.0 mi SSW 5.8 mph - N/A   Clear
6:56 PM 48.9 °F - 23.0 °F 36% 30.44 in 10.0 mi Calm Calm - N/A   Clear
7:56 PM 48.0 °F - 25.0 °F 41% 30.45 in 10.0 mi SSW 8.1 mph - N/A   Clear
8:56 PM 46.0 °F 43.9 °F 25.0 °F 44% 30.46 in 10.0 mi South 4.6 mph - N/A   Clear
9:56 PM 34.0 °F 28.0 °F 28.9 °F 82% 30.51 in 10.0 mi ESE 6.9 mph - N/A   Clear
10:56 PM 34.0 °F 26.6 °F 28.0 °F 79% 30.52 in 10.0 mi SE 9.2 mph - N/A   Clear
11:56 PM 32.0 °F 23.6 °F 28.4 °F 87% 30.45 in 10.0 mi SE 10.4 mph - N/A   Clear